Starlink 35103

operational
NORAD ID: 65633 Int'l Des: 2025-210 Owner: SPXS Country: US Constellation: starlink
NOTLE

Starlink 35103について

説明を読み込み中...

リアルタイム位置

3D地球を読み込み中...

次回通過

高度履歴

Altitude vs Time

uPlot chart will show altitude changes over time

軌道要素

1 65633U 25210M 25340.81693016 .00071378 00000-0 23983-2 0 9994
2 65633 53.1596 18.3393 0002063 86.9634 273.1603 15.30209152 13518
Epoch: Dec 6, 2025 • Age: 18 hours

現在のステータス

高度 479.5 km
速度 7.63 km/s
衛星直下点 50.59°N, 165.86°E
打ち上げ日 Sep 18, 2025
運用期間 0.2 years
タイプ internet

技術仕様

分類 Payload
質量 575.00 kg
乾燥質量 530.00 kg
総質量 575.00 kg
長さ 0.30 m
直径 4.10 m
スパン 29.00 m
形状 Box + pan
製造者 SPXS
バスタイプ Starlink V2MO
フェーズステータス In Orbit
所有者/国 SPXS/US

大規模コンステレーション

Loading constellations...